QPF
0.00 0.00 0.00 0.00 0.00 0.00 0.00 0.00 0.00 0.00 0.00 0.00 0.01 0.01 0.01 0.02 0.02 0.03 0.04 0.04 0.03 0.03 0.03 0.02 0.01 0.02 0.02 0.04 0.05 0.05 0.04 0.03 0.04 0.04 0.04 0.04 0.06 0.07 0.07 0.06 0.05 0.05 0.06 0.08
0.00 0.00 0.00 0.00 0.00 0.00 0.00 0.00 0.00 0.00 0.00 0.01 0.01 0.01 0.01 0.02 0.03 0.04 0.04 0.05 0.05 0.04 0.04 0.03 0.02 0.02 0.03 0.04 0.05 0.06 0.07 0.07 0.06 0.04 0.04 0.05 0.06 0.08 0.08 0.08 0.07 0.06 0.05 0.05
0.01 0.01 0.00 0.00 0.00 0.00 0.00 0.00 0.00 0.01 0.00 0.01 0.01 0.01 0.01 0.01 0.01 0.02 0.02 0.03 0.06 0.05 0.03 0.03 0.02 0.03 0.04 0.06 0.06 0.06 0.08 0.08 0.08 0.05 0.04 0.04 0.06 0.08 0.09 0.10 0.09 0.06 0.04 0.04
0.01 0.01 0.00 0.00 0.00 0.00 0.00 0.00 0.00 0.01 0.01 0.02 0.01 0.01 0.01 0.01 0.01 0.01 0.01 0.01 0.02 0.02 0.02 0.02 0.02 0.04 0.05 0.07 0.07 0.08 0.12 0.10 0.06 0.04 0.03 0.03 0.03 0.04 0.05 0.06 0.06 0.05 0.05 0.06
0.01 0.00 0.00 0.00 0.00 0.00 0.00 0.00 0.01 0.01 0.02 0.04 0.03 0.02 0.02 0.01 0.01 0.01 0.01 0.02 0.02 0.02 0.02 0.02 0.02 0.04 0.04 0.04 0.05 0.06 0.08 0.05 0.04 0.03 0.03 0.03 0.04 0.05 0.06 0.06 0.07 0.05 0.04 0.05
0.00 0.00 0.00 0.00 0.00 0.00 0.01 0.01 0.01 0.02 0.03 0.04 0.05 0.04 0.03 0.03 0.03 0.02 0.02 0.03 0.03 0.02 0.04 0.04 0.06 0.09 0.07 0.03 0.03 0.03 0.03 0.03 0.03 0.04 0.04 0.04 0.04 0.04 0.05 0.04 0.05 0.06 0.05 0.05
0.01 0.01 0.00 0.01 0.01 0.01 0.01 0.01 0.03 0.02 0.02 0.03 0.03 0.03 0.03 0.03 0.03 0.03 0.02 0.03 0.02 0.02 0.03 0.05 0.04 0.10 0.10 0.07 0.06 0.05 0.05 0.04 0.04 0.03 0.03 0.04 0.05 0.05 0.05 0.06 0.05 0.04 0.04 0.05
0.01 0.01 0.01 0.01 0.01 0.01 0.01 0.02 0.05 0.06 0.04 0.03 0.03 0.03 0.04 0.04 0.03 0.03 0.02 0.01 0.01 0.01 0.01 0.05 0.07 0.12 0.14 0.11 0.08 0.06 0.05 0.05 0.04 0.03 0.03 0.04 0.05 0.05 0.06 0.07 0.06 0.05 0.04 0.04
0.01 0.01 0.01 0.01 0.02 0.01 0.01 0.02 0.03 0.05 0.05 0.04 0.04 0.05 0.04 0.04 0.03 0.02 0.02 0.02 0.01 0.01 0.01 0.03 0.06 0.08 0.09 0.10 0.08 0.06 0.05 0.06 0.05 0.04 0.04 0.05 0.06 0.06 0.06 0.06 0.06 0.07 0.07 0.05
0.02 0.02 0.02 0.02 0.02 0.02 0.02 0.03 0.03 0.04 0.05 0.04 0.04 0.04 0.04 0.03 0.03 0.03 0.03 0.02 0.01 0.01 0.01 0.02 0.03 0.04 0.05 0.06 0.06 0.05 0.05 0.06 0.06 0.06 0.05 0.06 0.05 0.05 0.05 0.05 0.06 0.08 0.07 0.06
0.03 0.03 0.03 0.03 0.02 0.02 0.03 0.03 0.03 0.05 0.05 0.04 0.05 0.05 0.05 0.05 0.04 0.04 0.03 0.03 0.02 0.03 0.03 0.03 0.03 0.04 0.04 0.06 0.05 0.05 0.05 0.04 0.04 0.04 0.04 0.04 0.05 0.05 0.04 0.05 0.07 0.07 0.06 0.05
0.03 0.03 0.03 0.03 0.03 0.03 0.03 0.02 0.03 0.03 0.02 0.03 0.06 0.07 0.06 0.05 0.04 0.03 0.03 0.03 0.03 0.03 0.04 0.04 0.05 0.04 0.05 0.06 0.05 0.04 0.03 0.02 0.02 0.02 0.02 0.02 0.02 0.03 0.03 0.03 0.04 0.04 0.05 0.05
0.02 0.02 0.03 0.03 0.03 0.03 0.03 0.02 0.02 0.02 0.02 0.03 0.06 0.09 0.08 0.06 0.03 0.03 0.03 0.03 0.03 0.03 0.03 0.04 0.05 0.05 0.07 0.07 0.05 0.04 0.03 0.01 0.01 0.01 0.01 0.01 0.01 0.02 0.02 0.03 0.03 0.04 0.05 0.07
0.02 0.02 0.02 0.02 0.03 0.04 0.04 0.04 0.03 0.02 0.02 0.04 0.06 0.08 0.09 0.07 0.04 0.02 0.02 0.02 0.02 0.02 0.02 0.03 0.03 0.04 0.05 0.05 0.04 0.02 0.02 0.01 0.01 0.01 0.01 0.01 0.01 0.01 0.02 0.02 0.02 0.03 0.05 0.07
0.03 0.02 0.02 0.02 0.03 0.03 0.04 0.05 0.04 0.03 0.03 0.03 0.03 0.05 0.07 0.06 0.03 0.02 0.01 0.01 0.01 0.01 0.01 0.02 0.02 0.02 0.01 0.02 0.02 0.02 0.02 0.01 0.01 0.01 0.01 0.01 0.01 0.01 0.01 0.01 0.02 0.02 0.03 0.04
0.02 0.03 0.03 0.02 0.02 0.02 0.03 0.03 0.03 0.03 0.02 0.02 0.02 0.02 0.02 0.03 0.03 0.02 0.01 0.01 0.01 0.01 0.01 0.01 0.01 0.01 0.01 0.01 0.02 0.02 0.01 0.01 0.01 0.01 0.01 0.01 0.01 0.01 0.01 0.01 0.01 0.01 0.02 0.03
0.02 0.04 0.05 0.03 0.02 0.02 0.02 0.02 0.02 0.02 0.02 0.02 0.02 0.02 0.02 0.01 0.01 0.01 0.01 0.01 0.01 0.01 0.01 0.01 0.01 0.01 0.01 0.01 0.01 0.02 0.02 0.02 0.02 0.01 0.01 0.01 0.01 0.01 0.01 0.01 0.02 0.02 0.02 0.03
0.04 0.07 0.06 0.03 0.01 0.01 0.01 0.01 0.01 0.02 0.03 0.03 0.02 0.02 0.01 0.01 0.01 0.01 0.01 0.01 0.01 0.01 0.01 0.01 0.01 0.01 0.01 0.01 0.01 0.01 0.02 0.02 0.02 0.01 0.01 0.01 0.01 0.01 0.01 0.01 0.01 0.02 0.02 0.02
0.07 0.08 0.06 0.03 0.02 0.01 0.01 0.01 0.01 0.01 0.03 0.04 0.02 0.02 0.02 0.02 0.02 0.01 0.01 0.01 0.01 0.01 0.01 0.01 0.01 0.00 0.01 0.01 0.02 0.02 0.02 0.01 0.01 0.01 0.01 0.01 0.01 0.01 0.02 0.02 0.02 0.03 0.03 0.03
0.07 0.07 0.04 0.03 0.03 0.02 0.03 0.03 0.02 0.02 0.02 0.04 0.03 0.02 0.02 0.02 0.02 0.02 0.02 0.02 0.01 0.01 0.01 0.01 0.01 0.01 0.01 0.02 0.02 0.02 0.02 0.02 0.02 0.02 0.01 0.01 0.01 0.01 0.02 0.02 0.02 0.03 0.03 0.02
0.05 0.06 0.05 0.03 0.02 0.02 0.03 0.04 0.03 0.02 0.02 0.03 0.03 0.02 0.02 0.02 0.02 0.02 0.01 0.01 0.01 0.01 0.01 0.01 0.01 0.01 0.01 0.02 0.03 0.02 0.02 0.02 0.03 0.03 0.03 0.02 0.02 0.02 0.03 0.03 0.02 0.02 0.02 0.02
0.03 0.05 0.04 0.02 0.01 0.01 0.02 0.03 0.03 0.02 0.01 0.01 0.02 0.02 0.02 0.02 0.02 0.02 0.02 0.02 0.02 0.02 0.02 0.01 0.01 0.01 0.01 0.01 0.02 0.02 0.01 0.01 0.02 0.02 0.02 0.02 0.01 0.02 0.02 0.02 0.02 0.02 0.02 0.01
0.02 0.03 0.02 0.01 0.01 0.01 0.02 0.02 0.03 0.02 0.02 0.02 0.02 0.02 0.02 0.02 0.02 0.02 0.02 0.02 0.02 0.03 0.02 0.02 0.02 0.02 0.02 0.01 0.01 0.01 0.01 0.01 0.01 0.01 0.02 0.03 0.04 0.03 0.02 0.02 0.02 0.02 0.01 0.01
0.03 0.03 0.02 0.02 0.02 0.01 0.01 0.01 0.02 0.02 0.02 0.02 0.02 0.02 0.02 0.02 0.02 0.01 0.01 0.01 0.02 0.03 0.02 0.03 0.03 0.03 0.03 0.01 0.01 0.01 0.00 0.01 0.01 0.01 0.01 0.05 0.08 0.07 0.05 0.03 0.03 0.03 0.02 0.01
0.04 0.03 0.02 0.02 0.02 0.02 0.02 0.02 0.02 0.02 0.02 0.02 0.02 0.02 0.02 0.02 0.01 0.01 0.01 0.01 0.02 0.02 0.02 0.03 0.03 0.02 0.02 0.01 0.01 0.01 0.01 0.01 0.01 0.01 0.01 0.02 0.06 0.08 0.07 0.04 0.03 0.02 0.01 0.01
0.04 0.03 0.03 0.03 0.03 0.02 0.02 0.02 0.03 0.03 0.03 0.02 0.02 0.01 0.02 0.01 0.01 0.01 0.01 0.01 0.02 0.02 0.02 0.03 0.03 0.03 0.02 0.01 0.01 0.01 0.01 0.01 0.01 0.01 0.00 0.01 0.02 0.04 0.04 0.03 0.02 0.01 0.01 0.01
0.03 0.02 0.02 0.02 0.02 0.02 0.02 0.02 0.02 0.02 0.02 0.02 0.01 0.01 0.01 0.01 0.01 0.01 0.01 0.01 0.02 0.02 0.02 0.03 0.03 0.03 0.02 0.02 0.02 0.01 0.01 0.01 0.01 0.01 0.01 0.01 0.01 0.01 0.01 0.01 0.01 0.01 0.01 0.01
MSLP
1012.75 1013.52 1014.16 1014.66 1015.02 1015.21 1015.26 1015.19 1015.03 1014.81 1014.60 1014.44 1014.40 1014.51 1014.79 1015.26 1015.88 1016.64 1017.47 1018.34 1019.18 1019.96 1020.66 1021.27 1021.82 1022.30 1022.76 1023.22 1023.69 1024.17 1024.66 1025.14 1025.59 1025.98 1026.29 1026.52 1026.66 1026.71 1026.69 1026.61 1026.49 1026.35 1026.19 1026.04
1012.58 1013.23 1013.71 1014.04 1014.20 1014.23 1014.15 1014.00 1013.82 1013.66 1013.55 1013.54 1013.66 1013.92 1014.34 1014.90 1015.57 1016.34 1017.15 1017.98 1018.78 1019.54 1020.24 1020.89 1021.50 1022.07 1022.63 1023.18 1023.74 1024.29 1024.83 1025.34 1025.81 1026.21 1026.54 1026.79 1026.96 1027.04 1027.07 1027.03 1026.96 1026.85 1026.72 1026.59
1012.66 1013.15 1013.45 1013.58 1013.55 1013.41 1013.20 1012.97 1012.76 1012.63 1012.60 1012.70 1012.94 1013.32 1013.84 1014.46 1015.17 1015.94 1016.74 1017.54 1018.32 1019.08 1019.81 1020.50 1021.17 1021.83 1022.48 1023.11 1023.74 1024.34 1024.91 1025.44 1025.92 1026.33 1026.67 1026.94 1027.14 1027.28 1027.36 1027.39 1027.37 1027.32 1027.23 1027.13
1012.93 1013.23 1013.34 1013.26 1013.05 1012.74 1012.41 1012.10 1011.87 1011.74 1011.76 1011.93 1012.25 1012.72 1013.30 1013.97 1014.71 1015.48 1016.28 1017.07 1017.86 1018.64 1019.40 1020.15 1020.89 1021.62 1022.34 1023.04 1023.71 1024.35 1024.93 1025.47 1025.94 1026.35 1026.70 1027.00 1027.24 1027.43 1027.57 1027.67 1027.72 1027.73 1027.69 1027.63
1013.29 1013.39 1013.29 1013.02 1012.64 1012.19 1011.76 1011.38 1011.12 1011.00 1011.04 1011.25 1011.62 1012.13 1012.75 1013.45 1014.20 1014.99 1015.79 1016.60 1017.42 1018.23 1019.04 1019.85 1020.66 1021.46 1022.24 1022.98 1023.68 1024.33 1024.92 1025.44 1025.91 1026.32 1026.67 1026.99 1027.26 1027.50 1027.70 1027.86 1027.97 1028.04 1028.05 1028.02
1013.58 1013.48 1013.20 1012.77 1012.25 1011.71 1011.20 1010.79 1010.50 1010.39 1010.44 1010.68 1011.07 1011.60 1012.23 1012.95 1013.71 1014.51 1015.33 1016.17 1017.02 1017.88 1018.75 1019.62 1020.48 1021.33 1022.15 1022.92 1023.63 1024.28 1024.86 1025.37 1025.82 1026.22 1026.58 1026.91 1027.21 1027.49 1027.73 1027.94 1028.10 1028.21 1028.26 1028.25
1013.70 1013.42 1012.99 1012.45 1011.85 1011.25 1010.72 1010.30 1010.03 1009.92 1009.99 1010.24 1010.64 1011.17 1011.80 1012.51 1013.28 1014.09 1014.93 1015.80 1016.68 1017.59 1018.50 1019.42 1020.33 1021.20 1022.04 1022.82 1023.53 1024.17 1024.73 1025.22 1025.66 1026.06 1026.42 1026.76 1027.08 1027.37 1027.65 1027.88 1028.07 1028.20 1028.27 1028.28
1013.56 1013.15 1012.63 1012.03 1011.40 1010.82 1010.31 1009.93 1009.69 1009.62 1009.72 1009.97 1010.37 1010.88 1011.50 1012.20 1012.96 1013.76 1014.61 1015.50 1016.41 1017.34 1018.29 1019.23 1020.15 1021.04 1021.88 1022.64 1023.34 1023.96 1024.50 1024.98 1025.41 1025.80 1026.17 1026.52 1026.84 1027.15 1027.43 1027.67 1027.86 1028.00 1028.08 1028.11
1013.18 1012.69 1012.13 1011.53 1010.96 1010.44 1010.01 1009.70 1009.53 1009.51 1009.64 1009.90 1010.29 1010.79 1011.38 1012.05 1012.78 1013.57 1014.41 1015.29 1016.21 1017.14 1018.09 1019.02 1019.94 1020.80 1021.62 1022.36 1023.03 1023.63 1024.16 1024.63 1025.06 1025.45 1025.83 1026.17 1026.51 1026.81 1027.09 1027.32 1027.50 1027.64 1027.72 1027.76
1012.62 1012.11 1011.57 1011.04 1010.56 1010.15 1009.84 1009.64 1009.56 1009.61 1009.77 1010.04 1010.42 1010.89 1011.45 1012.08 1012.77 1013.53 1014.33 1015.19 1016.07 1016.98 1017.89 1018.79 1019.66 1020.49 1021.26 1021.96 1022.60 1023.18 1023.70 1024.17 1024.60 1025.01 1025.39 1025.75 1026.08 1026.38 1026.64 1026.86 1027.03 1027.15 1027.23 1027.28
1012.00 1011.52 1011.05 1010.63 1010.28 1010.01 1009.84 1009.76 1009.78 1009.90 1010.10 1010.38 1010.75 1011.19 1011.70 1012.27 1012.92 1013.62 1014.37 1015.17 1016.00 1016.85 1017.70 1018.54 1019.34 1020.11 1020.82 1021.48 1022.08 1022.63 1023.14 1023.62 1024.06 1024.49 1024.89 1025.26 1025.59 1025.89 1026.14 1026.34 1026.49 1026.59 1026.67 1026.73
1011.47 1011.05 1010.69 1010.39 1010.18 1010.06 1010.02 1010.06 1010.18 1010.35 1010.59 1010.88 1011.22 1011.62 1012.08 1012.60 1013.18 1013.82 1014.51 1015.24 1015.99 1016.76 1017.53 1018.28 1019.01 1019.69 1020.34 1020.94 1021.50 1022.03 1022.54 1023.02 1023.48 1023.93 1024.35 1024.73 1025.08 1025.37 1025.61 1025.80 1025.93 1026.03 1026.10 1026.18
1011.13 1010.80 1010.54 1010.37 1010.29 1010.30 1010.38 1010.52 1010.70 1010.92 1011.17 1011.45 1011.77 1012.13 1012.54 1013.00 1013.52 1014.09 1014.70 1015.36 1016.03 1016.72 1017.39 1018.05 1018.68 1019.29 1019.86 1020.40 1020.93 1021.43 1021.93 1022.43 1022.91 1023.37 1023.81 1024.21 1024.56 1024.86 1025.09 1025.27 1025.40 1025.49 1025.56 1025.64
1011.04 1010.79 1010.63 1010.57 1010.60 1010.70 1010.86 1011.07 1011.29 1011.53 1011.78 1012.05 1012.34 1012.66 1013.02 1013.42 1013.88 1014.39 1014.93 1015.51 1016.11 1016.70 1017.29 1017.86 1018.40 1018.92 1019.42 1019.91 1020.39 1020.88 1021.37 1021.86 1022.35 1022.83 1023.29 1023.70 1024.06 1024.36 1024.59 1024.76 1024.89 1024.97 1025.05 1025.13
1011.19 1011.02 1010.94 1010.96 1011.07 1011.23 1011.44 1011.67 1011.90 1012.14 1012.37 1012.61 1012.87 1013.15 1013.46 1013.82 1014.23 1014.68 1015.16 1015.67 1016.19 1016.71 1017.21 1017.69 1018.16 1018.60 1019.04 1019.47 1019.92 1020.37 1020.85 1021.34 1021.83 1022.31 1022.77 1023.19 1023.56 1023.86 1024.09 1024.26 1024.38 1024.47 1024.55 1024.63
1011.55 1011.45 1011.43 1011.50 1011.65 1011.84 1012.06 1012.28 1012.50 1012.72 1012.92 1013.13 1013.34 1013.59 1013.86 1014.18 1014.54 1014.94 1015.37 1015.82 1016.27 1016.72 1017.15 1017.55 1017.94 1018.32 1018.70 1019.08 1019.48 1019.91 1020.36 1020.83 1021.32 1021.79 1022.25 1022.66 1023.02 1023.32 1023.55 1023.72 1023.85 1023.94 1024.01 1024.09
1012.06 1012.01 1012.04 1012.14 1012.30 1012.49 1012.70 1012.90 1013.09 1013.27 1013.44 1013.61 1013.79 1013.99 1014.23 1014.50 1014.82 1015.17 1015.55 1015.94 1016.33 1016.71 1017.07 1017.40 1017.73 1018.04 1018.36 1018.70 1019.06 1019.45 1019.87 1020.32 1020.78 1021.24 1021.67 1022.07 1022.42 1022.72 1022.95 1023.12 1023.25 1023.34 1023.42 1023.50
1012.66 1012.64 1012.70 1012.82 1012.98 1013.17 1013.35 1013.53 1013.69 1013.83 1013.96 1014.08 1014.22 1014.39 1014.58 1014.81 1015.08 1015.38 1015.70 1016.02 1016.34 1016.65 1016.94 1017.21 1017.47 1017.73 1018.00 1018.29 1018.60 1018.96 1019.34 1019.75 1020.18 1020.61 1021.03 1021.41 1021.74 1022.02 1022.25 1022.43 1022.56 1022.66 1022.75 1022.82
1013.30 1013.32 1013.41 1013.54 1013.70 1013.87 1014.04 1014.19 1014.31 1014.42 1014.51 1014.60 1014.69 1014.81 1014.95 1015.13 1015.33 1015.56 1015.80 1016.05 1016.30 1016.53 1016.75 1016.95 1017.15 1017.35 1017.57 1017.81 1018.09 1018.40 1018.75 1019.13 1019.52 1019.92 1020.30 1020.66 1020.97 1021.24 1021.47 1021.65 1021.79 1021.90 1021.99 1022.08
1013.97 1014.03 1014.13 1014.28 1014.44 1014.61 1014.76 1014.88 1014.99 1015.06 1015.12 1015.16 1015.21 1015.27 1015.35 1015.46 1015.58 1015.72 1015.88 1016.04 1016.19 1016.33 1016.47 1016.61 1016.74 1016.89 1017.06 1017.27 1017.51 1017.79 1018.10 1018.45 1018.81 1019.17 1019.53 1019.86 1020.16 1020.42 1020.64 1020.82 1020.97 1021.09 1021.20 1021.29
1014.67 1014.75 1014.88 1015.04 1015.20 1015.36 1015.50 1015.62 1015.69 1015.74 1015.76 1015.77 1015.76 1015.76 1015.77 1015.79 1015.82 1015.86 1015.91 1015.96 1016.01 1016.07 1016.12 1016.19 1016.27 1016.37 1016.50 1016.67 1016.89 1017.14 1017.43 1017.75 1018.09 1018.43 1018.76 1019.07 1019.35 1019.60 1019.81 1020.00 1020.15 1020.28 1020.40 1020.50
1015.39 1015.48 1015.62 1015.79 1015.96 1016.11 1016.24 1016.34 1016.40 1016.42 1016.41 1016.37 1016.30 1016.23 1016.16 1016.08 1016.01 1015.95 1015.89 1015.83 1015.79 1015.75 1015.73 1015.73 1015.76 1015.82 1015.93 1016.08 1016.28 1016.52 1016.80 1017.10 1017.42 1017.74 1018.05 1018.34 1018.61 1018.85 1019.05 1019.23 1019.39 1019.52 1019.64 1019.74
1016.10 1016.20 1016.34 1016.50 1016.66 1016.81 1016.92 1017.00 1017.04 1017.03 1016.98 1016.89 1016.77 1016.63 1016.48 1016.31 1016.14 1015.98 1015.82 1015.66 1015.53 1015.41 1015.33 1015.28 1015.27 1015.31 1015.40 1015.54 1015.74 1015.98 1016.25 1016.54 1016.85 1017.16 1017.45 1017.73 1017.98 1018.20 1018.40 1018.56 1018.71 1018.84 1018.95 1019.04
1016.76 1016.86 1016.98 1017.12 1017.27 1017.39 1017.48 1017.54 1017.55 1017.50 1017.42 1017.28 1017.11 1016.91 1016.68 1016.44 1016.19 1015.94 1015.70 1015.47 1015.27 1015.09 1014.96 1014.88 1014.85 1014.88 1014.97 1015.12 1015.31 1015.56 1015.83 1016.12 1016.42 1016.72 1017.00 1017.25 1017.48 1017.68 1017.85 1018.00 1018.12 1018.23 1018.32 1018.40
1017.34 1017.40 1017.50 1017.61 1017.72 1017.81 1017.87 1017.89 1017.87 1017.79 1017.67 1017.50 1017.28 1017.04 1016.76 1016.46 1016.16 1015.85 1015.56 1015.28 1015.03 1014.83 1014.68 1014.58 1014.54 1014.58 1014.67 1014.83 1015.04 1015.28 1015.56 1015.85 1016.13 1016.41 1016.66 1016.89 1017.09 1017.26 1017.40 1017.51 1017.60 1017.68 1017.75 1017.79
1017.76 1017.79 1017.85 1017.92 1017.98 1018.03 1018.05 1018.04 1017.98 1017.88 1017.73 1017.53 1017.29 1017.02 1016.72 1016.40 1016.07 1015.74 1015.42 1015.13 1014.87 1014.66 1014.51 1014.41 1014.38 1014.42 1014.53 1014.69 1014.90 1015.14 1015.41 1015.68 1015.95 1016.19 1016.41 1016.60 1016.76 1016.88 1016.98 1017.05 1017.11 1017.15 1017.18 1017.20
1018.01 1018.01 1018.02 1018.05 1018.07 1018.08 1018.06 1018.01 1017.93 1017.80 1017.64 1017.43 1017.19 1016.91 1016.61 1016.30 1015.97 1015.65 1015.35 1015.06 1014.82 1014.61 1014.47 1014.39 1014.37 1014.41 1014.52 1014.68 1014.87 1015.10 1015.34 1015.57 1015.80 1016.00 1016.17 1016.31 1016.41 1016.49 1016.54 1016.57 1016.58 1016.59 1016.59 1016.59
Thickness
5738 5749 5753 5755 5752 5749 5749 5743 5738 5746 5751 5768 5775 5778 5781 5783 5785 5785 5784 5784 5783 5782 5781 5780 5779 5778 5777 5776 5774 5771 5767 5764 5760 5757 5754 5750 5747 5744 5740 5736 5732 5728 5725 5722
5732 5743 5749 5748 5752 5751 5752 5751 5750 5753 5756 5774 5777 5778 5778 5779 5780 5779 5778 5778 5778 5778 5777 5775 5774 5773 5772 5770 5769 5766 5763 5759 5756 5752 5749 5746 5742 5739 5735 5732 5728 5725 5721 5718
5712 5730 5737 5728 5743 5747 5750 5755 5753 5750 5762 5771 5771 5773 5775 5776 5777 5776 5776 5776 5775 5774 5774 5772 5771 5769 5766 5764 5763 5760 5756 5753 5749 5746 5743 5740 5737 5734 5729 5726 5723 5719 5716 5713
5700 5714 5704 5727 5749 5753 5750 5752 5756 5760 5764 5768 5771 5773 5774 5776 5775 5773 5774 5772 5771 5770 5769 5767 5766 5764 5762 5759 5756 5752 5749 5746 5743 5740 5737 5734 5731 5727 5724 5721 5718 5714 5710 5708
5687 5693 5707 5729 5742 5744 5741 5743 5754 5755 5759 5762 5766 5767 5765 5771 5772 5771 5771 5769 5768 5766 5764 5762 5760 5758 5755 5751 5748 5745 5742 5739 5737 5735 5732 5728 5725 5721 5718 5715 5711 5708 5705 5702
5685 5690 5692 5718 5739 5746 5742 5733 5750 5752 5753 5756 5759 5749 5754 5765 5766 5765 5765 5764 5762 5760 5757 5754 5752 5750 5746 5742 5740 5737 5736 5733 5732 5729 5726 5722 5718 5714 5711 5708 5705 5702 5698 5696
5681 5686 5696 5720 5732 5739 5720 5727 5746 5749 5750 5751 5750 5753 5756 5759 5759 5758 5757 5757 5755 5753 5749 5746 5745 5742 5738 5734 5732 5731 5730 5727 5725 5722 5719 5716 5712 5708 5704 5701 5697 5693 5690 5687
5673 5678 5689 5719 5723 5720 5723 5736 5741 5743 5746 5745 5746 5748 5750 5751 5750 5750 5749 5747 5746 5743 5741 5738 5737 5734 5729 5726 5725 5724 5722 5720 5717 5714 5712 5709 5705 5701 5697 5694 5690 5685 5681 5678
5680 5685 5701 5711 5717 5724 5727 5729 5734 5736 5738 5740 5739 5739 5740 5740 5740 5740 5739 5738 5737 5735 5732 5729 5728 5726 5722 5719 5718 5717 5714 5711 5708 5706 5703 5700 5697 5693 5689 5686 5682 5678 5674 5670
5679 5689 5698 5706 5714 5720 5724 5726 5730 5732 5732 5732 5731 5731 5731 5730 5730 5729 5729 5728 5727 5725 5723 5720 5719 5717 5715 5712 5711 5708 5704 5701 5699 5696 5693 5690 5688 5685 5681 5678 5675 5671 5667 5663
5672 5684 5692 5700 5706 5712 5717 5720 5722 5722 5723 5723 5722 5721 5721 5720 5719 5719 5719 5718 5718 5716 5714 5712 5711 5709 5707 5705 5703 5698 5694 5692 5689 5686 5684 5680 5677 5674 5672 5669 5668 5664 5661 5658
5667 5678 5681 5688 5698 5704 5707 5709 5712 5712 5711 5712 5713 5711 5711 5710 5710 5709 5709 5708 5707 5706 5705 5703 5702 5700 5698 5696 5694 5691 5687 5683 5680 5677 5675 5672 5669 5665 5662 5660 5659 5657 5654 5651
5668 5675 5678 5684 5689 5695 5697 5699 5701 5702 5702 5702 5702 5703 5702 5701 5701 5700 5700 5699 5698 5697 5696 5695 5693 5691 5690 5688 5685 5682 5679 5676 5672 5669 5667 5664 5662 5660 5656 5653 5650 5648 5645 5642
5664 5668 5668 5674 5678 5684 5687 5689 5690 5691 5691 5692 5693 5693 5693 5692 5692 5692 5691 5691 5690 5689 5687 5685 5684 5683 5682 5680 5677 5674 5671 5669 5666 5662 5660 5658 5655 5653 5650 5647 5643 5639 5635 5632
5656 5661 5663 5666 5669 5672 5675 5677 5677 5677 5679 5680 5682 5682 5683 5683 5683 5683 5683 5683 5682 5680 5678 5677 5676 5675 5673 5671 5669 5666 5663 5660 5657 5655 5652 5650 5647 5644 5641 5639 5635 5632 5628 5624
5647 5651 5654 5656 5658 5660 5662 5664 5665 5666 5668 5669 5670 5671 5673 5673 5673 5674 5674 5674 5673 5671 5670 5669 5668 5666 5665 5663 5660 5657 5655 5653 5651 5648 5645 5641 5639 5636 5633 5630 5628 5624 5621 5617
5639 5641 5643 5645 5648 5650 5652 5654 5656 5657 5658 5659 5660 5661 5662 5663 5663 5663 5663 5663 5663 5662 5662 5661 5659 5658 5657 5655 5652 5649 5647 5645 5643 5640 5637 5634 5631 5627 5625 5622 5620 5616 5613 5610
5636 5637 5639 5640 5641 5642 5643 5645 5647 5648 5649 5650 5651 5651 5652 5653 5653 5653 5653 5653 5653 5652 5652 5652 5651 5650 5649 5647 5645 5642 5639 5637 5634 5631 5628 5625 5622 5620 5617 5615 5612 5609 5605 5602
5627 5629 5631 5633 5634 5634 5634 5635 5637 5639 5641 5642 5642 5642 5643 5643 5643 5642 5643 5643 5643 5643 5643 5643 5642 5642 5641 5639 5637 5634 5632 5629 5626 5623 5620 5617 5614 5612 5609 5607 5605 5602 5599 5596
5619 5621 5622 5624 5625 5626 5626 5627 5629 5630 5631 5632 5633 5633 5633 5633 5633 5633 5633 5633 5634 5634 5635 5634 5634 5633 5632 5631 5629 5627 5624 5622 5619 5616 5613 5610 5607 5605 5602 5600 5598 5595 5591 5588
5609 5611 5613 5615 5616 5617 5618 5619 5620 5621 5622 5623 5623 5624 5624 5624 5624 5624 5624 5624 5625 5625 5625 5625 5625 5624 5623 5622 5620 5618 5616 5614 5612 5608 5606 5603 5600 5598 5596 5594 5591 5588 5585 5582
5601 5602 5604 5606 5607 5608 5609 5611 5612 5613 5613 5614 5615 5615 5615 5615 5615 5614 5615 5616 5617 5617 5616 5617 5617 5616 5615 5613 5612 5610 5608 5607 5604 5601 5598 5596 5593 5591 5589 5587 5585 5582 5579 5576
5594 5594 5596 5598 5599 5600 5601 5602 5604 5604 5605 5606 5606 5607 5607 5608 5607 5606 5607 5608 5609 5609 5610 5610 5610 5609 5607 5605 5604 5603 5601 5599 5598 5595 5593 5590 5587 5585 5583 5580 5578 5576 5572 5570
5588 5588 5589 5590 5591 5592 5593 5594 5595 5597 5597 5598 5598 5599 5600 5599 5599 5600 5601 5602 5602 5602 5603 5603 5602 5601 5600 5599 5597 5596 5594 5593 5591 5589 5587 5584 5581 5579 5576 5574 5571 5569 5566 5563
5583 5583 5583 5584 5584 5585 5586 5587 5587 5588 5589 5589 5590 5591 5592 5593 5593 5594 5595 5595 5596 5596 5596 5596 5595 5594 5593 5592 5591 5589 5588 5587 5585 5583 5581 5579 5576 5573 5570 5568 5565 5563 5560 5557
5576 5576 5578 5579 5579 5579 5579 5579 5580 5581 5581 5581 5582 5584 5584 5585 5586 5587 5588 5589 5589 5589 5589 5589 5589 5587 5586 5586 5585 5584 5583 5581 5579 5577 5576 5574 5571 5568 5565 5563 5560 5557 5555 5551
5570 5570 5571 5571 5572 5572 5573 5573 5573 5574 5574 5575 5575 5576 5577 5578 5579 5580 5581 5582 5582 5582 5582 5582 5582 5581 5580 5579 5578 5578 5577 5575 5574 5572 5570 5568 5565 5563 5560 5557 5555 5552 5549 5546